Time,TemperatureF,DewpointF,PressureIn,WindDirection,WindDirectionDegrees,WindSpeedMPH,WindSpeedGustMPH,Humidity,HourlyPrecipIn,Conditions,Clouds,dailyrainin,SoftwareType,DateUTC
2013-07-09 00:00:00,66.9,48.2,29.14,North,0,0.0,0.0,51,0.00,,,0.00,meteohub,2013-07-09 04:00:00,
2013-07-09 00:02:00,66.9,48.2,29.14,North,0,0.0,0.0,51,0.00,,,0.00,meteohub,2013-07-09 04:02:00,
2013-07-09 00:03:00,66.9,48.2,29.14,North,0,0.0,0.0,51,0.00,,,0.00,meteohub,2013-07-09 04:03:00,
2013-07-09 00:08:00,66.9,48.2,29.14,North,0,0.0,0.0,51,0.00,,,0.00,meteohub,2013-07-09 04:08:00,
2013-07-09 00:13:00,67.1,48.4,29.14,North,0,0.0,0.0,51,0.00,,,0.00,meteohub,2013-07-09 04:13:00,
2013-07-09 00:18:00,67.1,48.4,29.14,North,0,0.0,0.0,51,0.00,,,0.00,meteohub,2013-07-09 04:18:00,
2013-07-09 00:23:00,67.1,48.4,29.14,North,0,0.0,0.0,51,0.00,,,0.00,meteohub,2013-07-09 04:23:00,
2013-07-09 00:28:00,67.1,48.4,29.14,North,0,0.0,0.0,51,0.00,,,0.00,meteohub,2013-07-09 04:28:00,
2013-07-09 00:33:00,67.1,48.4,29.14,North,0,0.0,0.0,51,0.00,,,0.00,meteohub,2013-07-09 04:33:00,
2013-07-09 00:38:00,67.1,48.4,29.14,North,0,0.0,0.0,51,0.00,,,0.00,meteohub,2013-07-09 04:38:00,
2013-07-09 00:43:00,67.1,48.4,29.14,North,0,0.0,0.0,51,0.00,,,0.00,meteohub,2013-07-09 04:43:00,
2013-07-09 00:48:00,67.1,48.4,29.14,North,0,0.0,0.0,51,0.00,,,0.00,meteohub,2013-07-09 04:48:00,
2013-07-09 00:53:00,66.9,48.2,29.14,North,0,0.0,0.0,51,0.00,,,0.00,meteohub,2013-07-09 04:53:00,
2013-07-09 00:58:00,66.9,48.2,29.14,North,0,0.0,0.0,51,0.00,,,0.00,meteohub,2013-07-09 04:58:00,
2013-07-09 01:03:00,66.7,48.0,29.14,North,0,0.0,0.0,51,0.00,,,0.00,meteohub,2013-07-09 05:03:00,
2013-07-09 01:08:00,66.7,48.0,29.14,North,0,0.0,0.0,51,0.00,,,0.00,meteohub,2013-07-09 05:08:00,
2013-07-09 01:13:00,66.7,48.0,29.14,North,0,0.0,0.0,51,0.00,,,0.00,meteohub,2013-07-09 05:13:00,
2013-07-09 01:18:00,66.7,48.0,29.14,North,0,0.0,0.0,51,0.00,,,0.00,meteohub,2013-07-09 05:18:00,
2013-07-09 01:23:00,66.7,48.0,29.14,North,0,0.0,0.0,51,0.00,,,0.00,meteohub,2013-07-09 05:23:00,
2013-07-09 01:28:00,66.7,48.0,29.14,North,0,0.0,0.0,51,0.00,,,0.00,meteohub,2013-07-09 05:28:00,
2013-07-09 01:35:00,66.7,48.0,29.14,North,0,0.0,0.0,51,0.00,,,0.00,meteohub,2013-07-09 05:35:00,
2013-07-09 01:40:00,66.7,48.0,29.14,North,0,0.0,0.0,51,0.00,,,0.00,meteohub,2013-07-09 05:40:00,
2013-07-09 01:45:00,66.7,48.0,29.14,North,0,0.0,0.0,51,0.00,,,0.00,meteohub,2013-07-09 05:45:00,
2013-07-09 01:50:00,66.7,48.0,29.14,North,0,0.0,0.0,51,0.00,,,0.00,meteohub,2013-07-09 05:50:00,
2013-07-09 01:55:00,66.7,48.0,29.14,North,0,0.0,0.0,51,0.00,,,0.00,meteohub,2013-07-09 05:55:00,
2013-07-09 02:00:00,66.7,48.0,29.14,North,0,0.0,0.0,51,0.00,,,0.00,meteohub,2013-07-09 06:00:00,
2013-07-09 02:05:00,66.7,48.0,29.14,North,0,0.0,0.0,51,0.00,,,0.00,meteohub,2013-07-09 06:05:00,
2013-07-09 02:10:00,66.7,48.0,29.14,North,0,0.0,0.0,51,0.00,,,0.00,meteohub,2013-07-09 06:10:00,
2013-07-09 02:15:00,66.7,48.0,29.14,North,0,0.0,0.0,51,0.00,,,0.00,meteohub,2013-07-09 06:15:00,
2013-07-09 02:20:00,66.7,48.0,29.14,North,0,0.0,0.0,51,0.00,,,0.00,meteohub,2013-07-09 06:20:00,
2013-07-09 02:25:00,66.7,48.0,29.14,North,0,0.0,0.0,51,0.00,,,0.00,meteohub,2013-07-09 06:25:00,
2013-07-09 02:30:00,66.7,48.0,29.14,North,0,0.0,0.0,51,0.00,,,0.00,meteohub,2013-07-09 06:30:00,
2013-07-09 02:35:00,66.7,48.0,29.14,North,0,0.0,0.0,51,0.00,,,0.00,meteohub,2013-07-09 06:35:00,
2013-07-09 02:40:00,66.9,48.2,29.14,North,0,0.0,0.0,51,0.00,,,0.00,meteohub,2013-07-09 06:40:00,
2013-07-09 02:45:00,66.9,48.2,29.14,North,0,0.0,0.0,51,0.00,,,0.00,meteohub,2013-07-09 06:45:00,
2013-07-09 02:50:00,66.9,48.2,29.14,North,0,0.0,0.0,51,0.00,,,0.00,meteohub,2013-07-09 06:50:00,
2013-07-09 02:55:00,66.9,48.2,29.14,North,0,0.0,0.0,51,0.00,,,0.00,meteohub,2013-07-09 06:55:00,
2013-07-09 03:00:00,66.9,48.2,29.14,North,0,0.0,0.0,51,0.00,,,0.00,meteohub,2013-07-09 07:00:00,
2013-07-09 03:05:00,66.9,48.2,29.14,North,0,0.0,0.0,51,0.00,,,0.00,meteohub,2013-07-09 07:05:00,
2013-07-09 03:10:00,66.9,48.2,29.14,North,0,0.0,0.0,51,0.00,,,0.00,meteohub,2013-07-09 07:10:00,
2013-07-09 03:15:00,66.9,48.2,29.14,North,0,0.0,0.0,51,0.00,,,0.00,meteohub,2013-07-09 07:15:00,
2013-07-09 03:20:00,66.9,48.2,29.14,North,0,0.0,0.0,51,0.00,,,0.00,meteohub,2013-07-09 07:20:00,
2013-07-09 03:25:00,66.9,48.2,29.14,North,0,0.0,0.0,51,0.00,,,0.00,meteohub,2013-07-09 07:25:00,
2013-07-09 03:30:00,66.9,48.2,29.14,North,0,0.0,0.0,51,0.00,,,0.00,meteohub,2013-07-09 07:30:00,
2013-07-09 03:35:00,66.7,48.0,29.14,North,0,0.0,0.0,51,0.00,,,0.00,meteohub,2013-07-09 07:35:00,
2013-07-09 03:40:00,66.7,48.0,29.14,North,0,0.0,0.0,51,0.00,,,0.00,meteohub,2013-07-09 07:40:00,
2013-07-09 03:45:00,66.7,48.0,29.14,North,0,0.0,0.0,51,0.00,,,0.00,meteohub,2013-07-09 07:45:00,
2013-07-09 03:53:00,66.7,48.0,29.14,North,0,0.0,0.0,51,0.00,,,0.00,meteohub,2013-07-09 07:53:00,
2013-07-09 03:58:00,66.7,48.0,29.14,North,0,0.0,0.0,51,0.00,,,0.00,meteohub,2013-07-09 07:58:00,
2013-07-09 04:03:00,66.7,48.0,29.14,North,0,0.0,0.0,51,0.00,,,0.00,meteohub,2013-07-09 08:03:00,
2013-07-09 04:08:00,66.7,48.0,29.14,North,0,0.0,0.0,51,0.00,,,0.00,meteohub,2013-07-09 08:08:00,
2013-07-09 04:13:00,66.7,48.0,29.14,North,0,0.0,0.0,51,0.00,,,0.00,meteohub,2013-07-09 08:13:00,
2013-07-09 04:18:00,66.7,48.0,29.14,North,0,0.0,0.0,51,0.00,,,0.00,meteohub,2013-07-09 08:18:00,
2013-07-09 04:23:00,66.7,48.0,29.14,North,0,0.0,0.0,51,0.00,,,0.00,meteohub,2013-07-09 08:23:00,
2013-07-09 04:28:00,66.6,47.8,29.14,North,0,0.0,0.0,51,0.00,,,0.00,meteohub,2013-07-09 08:28:00,
2013-07-09 04:33:00,66.6,47.8,29.14,North,0,0.0,0.0,51,0.00,,,0.00,meteohub,2013-07-09 08:33:00,
2013-07-09 04:38:00,66.6,47.8,29.14,North,0,0.0,0.0,51,0.00,,,0.00,meteohub,2013-07-09 08:38:00,
2013-07-09 04:43:00,66.4,47.7,29.14,North,0,0.0,0.0,51,0.00,,,0.00,meteohub,2013-07-09 08:43:00,
2013-07-09 04:48:00,66.4,47.7,29.14,North,0,0.0,0.0,51,0.00,,,0.00,meteohub,2013-07-09 08:48:00,
2013-07-09 04:53:00,66.4,47.7,29.14,North,0,0.0,0.0,51,0.00,,,0.00,meteohub,2013-07-09 08:53:00,
2013-07-09 04:58:00,66.4,47.7,29.14,North,0,0.0,0.0,51,0.00,,,0.00,meteohub,2013-07-09 08:58:00,
2013-07-09 05:03:00,66.4,47.7,29.14,North,0,0.0,0.0,51,0.00,,,0.00,meteohub,2013-07-09 09:03:00,
2013-07-09 05:08:00,66.4,47.7,29.14,North,0,0.0,0.0,51,0.00,,,0.00,meteohub,2013-07-09 09:08:00,
2013-07-09 05:13:00,66.4,47.7,29.14,North,0,0.0,0.0,51,0.00,,,0.00,meteohub,2013-07-09 09:13:00,
2013-07-09 05:18:00,66.4,47.7,29.14,North,0,0.0,0.0,51,0.00,,,0.00,meteohub,2013-07-09 09:18:00,
2013-07-09 05:23:00,66.4,47.7,29.14,North,0,0.0,0.0,51,0.00,,,0.00,meteohub,2013-07-09 09:23:00,
2013-07-09 05:28:00,66.4,47.7,29.14,North,0,0.0,0.0,51,0.00,,,0.00,meteohub,2013-07-09 09:28:00,
2013-07-09 05:33:00,66.4,47.7,29.14,North,0,0.0,0.0,51,0.00,,,0.00,meteohub,2013-07-09 09:33:00,
2013-07-09 05:38:00,66.4,48.2,29.14,North,0,0.0,0.0,52,0.00,,,0.00,meteohub,2013-07-09 09:38:00,
2013-07-09 05:43:00,66.4,48.2,29.14,North,0,0.0,0.0,52,0.00,,,0.00,meteohub,2013-07-09 09:43:00,
2013-07-09 05:48:00,66.4,48.2,29.14,North,0,0.0,0.0,52,0.00,,,0.00,meteohub,2013-07-09 09:48:00,
2013-07-09 05:53:00,66.4,48.2,29.14,North,0,0.0,0.0,52,0.00,,,0.00,meteohub,2013-07-09 09:53:00,
2013-07-09 05:58:00,66.4,48.2,29.14,North,0,0.0,0.0,52,0.00,,,0.00,meteohub,2013-07-09 09:58:00,
2013-07-09 06:03:00,66.4,48.2,29.14,North,0,0.0,0.0,52,0.00,,,0.00,meteohub,2013-07-09 10:03:00,
2013-07-09 06:09:00,66.4,48.2,29.14,North,0,0.0,0.0,52,0.00,,,0.00,meteohub,2013-07-09 10:09:00,
2013-07-09 06:14:00,66.4,48.2,29.14,North,0,0.0,0.0,52,0.00,,,0.00,meteohub,2013-07-09 10:14:00,
2013-07-09 06:19:00,66.4,48.2,29.14,North,0,0.0,0.0,52,0.00,,,0.00,meteohub,2013-07-09 10:19:00,
2013-07-09 06:24:00,66.4,48.2,29.14,North,0,0.0,0.0,52,0.00,,,0.00,meteohub,2013-07-09 10:24:00,
2013-07-09 06:29:00,66.4,48.2,29.14,North,0,0.0,0.0,52,0.00,,,0.00,meteohub,2013-07-09 10:29:00,
2013-07-09 06:34:00,66.4,48.2,29.14,North,0,0.0,0.0,52,0.00,,,0.00,meteohub,2013-07-09 10:34:00,
2013-07-09 06:39:00,66.6,48.4,29.14,North,0,0.0,0.0,52,0.00,,,0.00,meteohub,2013-07-09 10:39:00,
2013-07-09 06:44:00,66.4,48.2,29.14,North,0,0.0,0.0,52,0.00,,,0.00,meteohub,2013-07-09 10:44:00,
2013-07-09 06:49:00,66.6,48.4,29.14,North,0,0.0,0.0,52,0.00,,,0.00,meteohub,2013-07-09 10:49:00,
2013-07-09 06:54:00,66.4,48.2,29.14,North,0,0.0,0.0,52,0.00,,,0.00,meteohub,2013-07-09 10:54:00,
2013-07-09 06:59:00,66.6,48.4,29.14,North,0,0.0,0.0,52,0.00,,,0.00,meteohub,2013-07-09 10:59:00,
2013-07-09 07:04:00,66.6,48.4,29.14,North,0,0.0,0.0,52,0.00,,,0.00,meteohub,2013-07-09 11:04:00,
2013-07-09 07:09:00,66.4,48.2,29.14,North,0,0.0,0.0,52,0.00,,,0.00,meteohub,2013-07-09 11:09:00,
2013-07-09 07:14:00,66.7,48.6,29.14,North,0,0.0,0.0,52,0.00,,,0.00,meteohub,2013-07-09 11:14:00,
2013-07-09 07:19:00,66.7,48.6,29.14,North,0,0.0,0.0,52,0.00,,,0.00,meteohub,2013-07-09 11:19:00,
2013-07-09 07:24:00,66.7,48.6,29.14,North,0,0.0,0.0,52,0.00,,,0.00,meteohub,2013-07-09 11:24:00,
2013-07-09 07:29:00,66.9,48.7,29.14,North,0,0.0,0.0,52,0.00,,,0.00,meteohub,2013-07-09 11:29:00,
2013-07-09 07:34:00,67.1,48.9,29.14,North,0,0.0,0.0,52,0.00,,,0.00,meteohub,2013-07-09 11:34:00,
2013-07-09 07:39:00,67.1,48.9,29.14,North,0,0.0,0.0,52,0.00,,,0.00,meteohub,2013-07-09 11:39:00,
2013-07-09 07:44:00,67.1,48.9,29.14,North,0,0.0,0.0,52,0.00,,,0.00,meteohub,2013-07-09 11:44:00,
2013-07-09 07:49:00,67.3,49.1,29.14,North,0,0.0,0.0,52,0.00,,,0.00,meteohub,2013-07-09 11:49:00,
2013-07-09 07:54:00,67.5,49.3,29.14,North,0,0.0,0.0,52,0.00,,,0.00,meteohub,2013-07-09 11:54:00,
2013-07-09 07:59:00,67.5,49.3,29.14,North,0,0.0,0.0,52,0.00,,,0.00,meteohub,2013-07-09 11:59:00,
2013-07-09 08:04:00,67.5,49.3,29.14,North,0,0.0,0.0,52,0.00,,,0.00,meteohub,2013-07-09 12:04:00,
2013-07-09 08:09:00,67.6,49.5,29.14,North,0,0.0,0.0,52,0.00,,,0.00,meteohub,2013-07-09 12:09:00,
2013-07-09 08:14:00,67.8,49.6,29.14,North,0,0.0,0.0,52,0.00,,,0.00,meteohub,2013-07-09 12:14:00,
2013-07-09 08:19:00,68.0,49.6,29.14,North,0,0.0,0.0,52,0.00,,,0.00,meteohub,2013-07-09 12:19:00,
2013-07-09 08:24:00,68.2,49.8,29.14,North,0,0.0,0.0,52,0.00,,,0.00,meteohub,2013-07-09 12:24:00,
2013-07-09 08:29:00,68.4,50.0,29.14,North,0,0.0,0.0,52,0.00,,,0.00,meteohub,2013-07-09 12:29:00,
2013-07-09 08:34:00,68.5,50.2,29.14,North,0,0.0,0.0,52,0.00,,,0.00,meteohub,2013-07-09 12:34:00,
2013-07-09 08:39:00,68.7,50.4,29.14,North,0,0.0,0.0,52,0.00,,,0.00,meteohub,2013-07-09 12:39:00,
2013-07-09 08:44:00,68.7,50.4,29.14,North,0,0.0,0.0,52,0.00,,,0.00,meteohub,2013-07-09 12:44:00,
2013-07-09 08:49:00,68.7,50.4,29.14,North,0,0.0,0.0,52,0.00,,,0.00,meteohub,2013-07-09 12:49:00,
2013-07-09 08:54:00,68.9,50.5,29.14,North,0,0.0,0.0,52,0.00,,,0.00,meteohub,2013-07-09 12:54:00,
2013-07-09 08:59:00,69.1,50.7,29.14,North,0,0.0,0.0,52,0.00,,,0.00,meteohub,2013-07-09 12:59:00,
2013-07-09 09:04:00,69.1,50.7,29.14,North,0,0.0,0.0,52,0.00,,,0.00,meteohub,2013-07-09 13:04:00,
2013-07-09 09:09:00,69.3,50.9,29.14,North,0,0.0,0.0,52,0.00,,,0.00,meteohub,2013-07-09 13:09:00,
2013-07-09 09:14:00,69.3,50.4,29.14,North,0,0.0,0.0,51,0.00,,,0.00,meteohub,2013-07-09 13:14:00,
2013-07-09 09:19:00,69.3,50.4,29.14,North,0,0.0,0.0,51,0.00,,,0.00,meteohub,2013-07-09 13:19:00,
2013-07-09 09:24:00,69.3,50.4,29.14,North,0,0.0,0.0,51,0.00,,,0.00,meteohub,2013-07-09 13:24:00,
2013-07-09 09:29:00,69.3,50.4,29.14,North,0,0.0,0.0,51,0.00,,,0.00,meteohub,2013-07-09 13:29:00,
2013-07-09 09:34:00,69.4,50.0,29.14,North,0,0.0,0.0,50,0.00,,,0.00,meteohub,2013-07-09 13:34:00,
2013-07-09 09:39:00,69.6,50.7,29.14,North,0,0.0,0.0,51,0.00,,,0.00,meteohub,2013-07-09 13:39:00,
2013-07-09 09:44:00,69.8,50.9,29.14,North,0,0.0,0.0,51,0.00,,,0.00,meteohub,2013-07-09 13:44:00,
2013-07-09 09:49:00,70.0,51.1,29.14,North,0,0.0,0.0,51,0.00,,,0.00,meteohub,2013-07-09 13:49:00,
2013-07-09 09:54:00,70.0,51.6,29.14,North,0,0.0,0.0,52,0.00,,,0.00,meteohub,2013-07-09 13:54:00,
2013-07-09 09:59:00,70.3,51.8,29.14,North,0,0.0,0.0,52,0.00,,,0.00,meteohub,2013-07-09 13:59:00,
2013-07-09 10:04:00,70.3,51.8,29.14,North,0,0.0,0.0,52,0.00,,,0.00,meteohub,2013-07-09 14:04:00,
2013-07-09 10:09:00,70.5,52.5,29.14,North,0,0.0,0.0,53,0.00,,,0.00,meteohub,2013-07-09 14:09:00,
2013-07-09 10:14:00,70.9,52.9,29.14,North,0,0.0,0.0,53,0.00,,,0.00,meteohub,2013-07-09 14:14:00,
2013-07-09 10:19:00,70.9,53.4,29.14,North,0,0.0,0.0,54,0.00,,,0.00,meteohub,2013-07-09 14:19:00,
2013-07-09 10:24:00,70.9,54.0,29.14,North,0,0.0,0.0,55,0.00,,,0.00,meteohub,2013-07-09 14:24:00,
2013-07-09 10:29:00,71.1,54.1,29.14,North,0,0.0,0.0,55,0.00,,,0.00,meteohub,2013-07-09 14:29:00,
2013-07-09 10:34:00,71.2,54.7,29.14,North,0,0.0,0.0,56,0.00,,,0.00,meteohub,2013-07-09 14:34:00,
2013-07-09 10:40:00,71.4,55.4,29.14,North,0,0.0,0.0,57,0.00,,,0.00,meteohub,2013-07-09 14:40:00,
2013-07-09 10:45:00,71.4,55.4,29.14,North,0,0.0,0.0,57,0.00,,,0.00,meteohub,2013-07-09 14:45:00,
2013-07-09 10:50:00,71.8,55.8,29.14,North,0,0.0,0.0,57,0.00,,,0.00,meteohub,2013-07-09 14:50:00,
2013-07-09 10:55:00,72.3,56.3,29.14,North,0,0.0,0.0,57,0.00,,,0.00,meteohub,2013-07-09 14:55:00,
2013-07-09 11:00:00,73.0,56.5,29.14,North,0,0.0,0.0,56,0.00,,,0.00,meteohub,2013-07-09 15:00:00,
2013-07-09 11:05:00,73.6,57.4,29.14,North,0,0.0,0.0,57,0.00,,,0.00,meteohub,2013-07-09 15:05:00,
2013-07-09 11:10:00,73.9,58.3,29.14,North,0,0.0,0.0,58,0.00,,,0.00,meteohub,2013-07-09 15:10:00,
2013-07-09 11:15:00,73.9,58.6,29.14,North,0,0.0,0.0,59,0.00,,,0.00,meteohub,2013-07-09 15:15:00,
2013-07-09 11:20:00,73.9,58.3,29.14,North,0,0.0,0.0,58,0.00,,,0.00,meteohub,2013-07-09 15:20:00,
2013-07-09 11:25:00,74.1,58.8,29.14,North,0,0.0,0.0,59,0.00,,,0.00,meteohub,2013-07-09 15:25:00,
2013-07-09 11:30:00,74.1,58.8,29.14,North,0,0.0,0.0,59,0.00,,,0.00,meteohub,2013-07-09 15:30:00,
2013-07-09 11:35:00,75.0,59.2,29.14,North,0,0.0,0.0,58,0.00,,,0.00,meteohub,2013-07-09 15:35:00,
2013-07-09 11:40:00,75.4,59.5,29.14,North,0,0.0,0.0,58,0.00,,,0.00,meteohub,2013-07-09 15:40:00,
2013-07-09 11:45:00,75.2,59.9,29.14,North,0,0.0,0.0,59,0.00,,,0.00,meteohub,2013-07-09 15:45:00,
2013-07-09 11:50:00,75.4,60.1,29.14,North,0,0.0,0.0,59,0.00,,,0.00,meteohub,2013-07-09 15:50:00,
2013-07-09 11:55:00,75.7,60.4,29.14,North,0,0.0,0.0,59,0.00,,,0.00,meteohub,2013-07-09 15:55:00,
2013-07-09 12:00:00,75.7,60.4,29.14,North,0,0.0,0.0,59,0.00,,,0.00,meteohub,2013-07-09 16:00:00,
2013-07-09 12:05:00,75.9,60.6,29.14,North,0,0.0,0.0,59,0.00,,,0.00,meteohub,2013-07-09 16:05:00,
2013-07-09 12:10:00,76.3,61.0,29.14,North,0,0.0,0.0,59,0.00,,,0.00,meteohub,2013-07-09 16:10:00,
2013-07-09 12:15:00,76.5,61.5,29.14,North,0,0.0,0.0,60,0.00,,,0.00,meteohub,2013-07-09 16:15:00,
2013-07-09 12:20:00,76.5,61.0,29.14,North,0,0.0,0.0,59,0.00,,,0.00,meteohub,2013-07-09 16:20:00,
2013-07-09 12:25:00,76.8,61.3,29.14,North,0,0.0,0.0,59,0.00,,,0.00,meteohub,2013-07-09 16:25:00,
2013-07-09 12:30:00,77.2,61.7,29.14,North,0,0.0,0.0,59,0.00,,,0.00,meteohub,2013-07-09 16:30:00,
2013-07-09 12:35:00,77.5,62.6,29.14,North,0,0.0,0.0,60,0.00,,,0.00,meteohub,2013-07-09 16:35:00,
2013-07-09 12:40:00,77.5,62.6,29.14,North,0,0.0,0.0,60,0.00,,,0.00,meteohub,2013-07-09 16:40:00,
2013-07-09 12:45:00,77.5,62.6,29.14,North,0,0.0,0.0,60,0.00,,,0.00,meteohub,2013-07-09 16:45:00,
2013-07-09 12:50:00,77.5,62.6,29.14,North,0,0.0,0.0,60,0.00,,,0.00,meteohub,2013-07-09 16:50:00,
2013-07-09 12:55:00,77.7,62.8,29.14,North,0,0.0,0.0,60,0.00,,,0.00,meteohub,2013-07-09 16:55:00,
2013-07-09 13:01:00,78.4,63.3,29.14,North,0,0.0,0.0,60,0.00,,,0.00,meteohub,2013-07-09 17:01:00,
2013-07-09 13:06:00,78.8,63.7,29.14,North,0,0.0,0.0,60,0.00,,,0.00,meteohub,2013-07-09 17:06:00,
2013-07-09 13:11:00,79.0,63.9,29.14,North,0,0.0,0.0,60,0.00,,,0.00,meteohub,2013-07-09 17:11:00,
2013-07-09 13:16:00,79.3,64.8,29.14,North,0,0.0,0.0,61,0.00,,,0.00,meteohub,2013-07-09 17:16:00,
2013-07-09 13:21:00,79.9,65.3,29.14,North,0,0.0,0.0,61,0.00,,,0.00,meteohub,2013-07-09 17:21:00,
2013-07-09 13:26:00,80.8,66.6,29.14,North,0,0.0,0.0,62,0.00,,,0.00,meteohub,2013-07-09 17:26:00,
2013-07-09 13:31:00,81.1,66.9,29.14,North,0,0.0,0.0,62,0.00,,,0.00,meteohub,2013-07-09 17:31:00,
2013-07-09 14:51:00,81.3,67.1,29.14,North,0,0.0,0.0,62,0.00,,,0.00,meteohub,2013-07-09 18:51:00,
2013-07-09 14:56:00,81.5,67.3,29.14,North,0,0.0,0.0,62,0.00,,,0.00,meteohub,2013-07-09 18:56:00,
2013-07-09 15:01:00,81.9,68.0,29.14,North,0,0.0,0.0,63,0.00,,,0.00,meteohub,2013-07-09 19:01:00,
2013-07-09 15:06:00,81.5,67.6,29.14,North,0,0.0,0.0,63,0.00,,,0.00,meteohub,2013-07-09 19:06:00,
2013-07-09 15:11:00,81.3,67.5,29.14,North,0,0.0,0.0,63,0.00,,,0.00,meteohub,2013-07-09 19:11:00,
2013-07-09 15:16:00,80.8,66.9,29.14,North,0,0.0,0.0,63,0.00,,,0.00,meteohub,2013-07-09 19:16:00,
2013-07-09 15:21:00,80.4,67.1,29.14,North,0,0.0,0.0,64,0.00,,,0.00,meteohub,2013-07-09 19:21:00,
2013-07-09 15:26:00,80.4,67.1,29.14,North,0,0.0,0.0,64,0.00,,,0.00,meteohub,2013-07-09 19:26:00,
2013-07-09 15:31:00,80.6,66.9,29.14,North,0,0.0,0.0,63,0.00,,,0.00,meteohub,2013-07-09 19:31:00,
2013-07-09 15:36:00,81.1,67.3,29.14,North,0,0.0,0.0,63,0.00,,,0.00,meteohub,2013-07-09 19:36:00,
2013-07-09 15:41:00,81.0,67.6,29.14,North,0,0.0,0.0,64,0.00,,,0.00,meteohub,2013-07-09 19:41:00,
2013-07-09 15:46:00,80.4,67.1,29.14,North,0,0.0,0.0,64,0.00,,,0.00,meteohub,2013-07-09 19:46:00,
2013-07-09 15:51:00,80.1,66.7,29.14,North,0,0.0,0.0,64,0.00,,,0.00,meteohub,2013-07-09 19:51:00,
2013-07-09 15:56:00,80.8,66.9,29.14,North,0,0.0,0.0,63,0.00,,,0.00,meteohub,2013-07-09 19:56:00,
2013-07-09 16:01:00,81.3,68.0,29.14,North,0,0.0,0.0,64,0.00,,,0.00,meteohub,2013-07-09 20:01:00,
2013-07-09 16:06:00,82.2,68.9,29.14,North,0,0.0,0.0,64,0.00,,,0.00,meteohub,2013-07-09 20:06:00,
2013-07-09 16:11:00,82.2,68.9,29.14,North,0,0.0,0.0,64,0.00,,,0.00,meteohub,2013-07-09 20:11:00,
2013-07-09 16:16:00,81.9,68.9,29.14,North,0,0.0,0.0,65,0.00,,,0.00,meteohub,2013-07-09 20:16:00,
2013-07-09 16:21:00,81.7,68.7,29.14,North,0,0.0,0.0,65,0.00,,,0.00,meteohub,2013-07-09 20:21:00,
2013-07-09 16:26:00,81.9,68.9,29.14,North,0,0.0,0.0,65,0.00,,,0.00,meteohub,2013-07-09 20:26:00,
2013-07-09 16:31:00,82.0,69.1,29.14,North,0,0.0,0.0,65,0.00,,,0.00,meteohub,2013-07-09 20:31:00,
2013-07-09 16:36:00,81.9,68.9,29.14,North,0,0.0,0.0,65,0.00,,,0.00,meteohub,2013-07-09 20:36:00,
2013-07-09 16:41:00,82.0,69.1,29.14,North,0,0.0,0.0,65,0.00,,,0.00,meteohub,2013-07-09 20:41:00,
2013-07-09 16:46:00,82.0,69.6,29.14,North,0,0.0,0.0,66,0.00,,,0.00,meteohub,2013-07-09 20:46:00,
2013-07-09 16:51:00,82.0,69.6,29.14,North,0,0.0,0.0,66,0.00,,,0.00,meteohub,2013-07-09 20:51:00,
2013-07-09 16:56:00,82.0,69.6,29.14,North,0,0.0,0.0,66,0.00,,,0.00,meteohub,2013-07-09 20:56:00,
2013-07-09 17:01:00,81.7,69.3,29.14,North,0,0.0,0.0,66,0.00,,,0.00,meteohub,2013-07-09 21:01:00,
2013-07-09 17:06:00,81.5,69.1,29.14,North,0,0.0,0.0,66,0.00,,,0.00,meteohub,2013-07-09 21:06:00,
2013-07-09 17:11:00,81.5,69.4,29.14,North,0,0.0,0.0,67,0.00,,,0.00,meteohub,2013-07-09 21:11:00,
2013-07-09 17:16:00,81.9,69.8,29.14,North,0,0.0,0.0,67,0.00,,,0.00,meteohub,2013-07-09 21:16:00,
2013-07-09 17:21:00,81.9,69.8,29.14,North,0,0.0,0.0,67,0.00,,,0.00,meteohub,2013-07-09 21:21:00,
2013-07-09 17:26:00,81.7,69.6,29.14,North,0,0.0,0.0,67,0.00,,,0.00,meteohub,2013-07-09 21:26:00,
2013-07-09 17:31:00,81.5,69.4,29.14,North,0,0.0,0.0,67,0.00,,,0.00,meteohub,2013-07-09 21:31:00,
2013-07-09 17:36:00,81.5,69.4,29.14,North,0,0.0,0.0,67,0.00,,,0.00,meteohub,2013-07-09 21:36:00,
2013-07-09 17:41:00,82.0,70.3,29.14,North,0,0.0,0.0,68,0.00,,,0.00,meteohub,2013-07-09 21:41:00,
2013-07-09 17:46:00,82.8,71.1,29.14,North,0,0.0,0.0,68,0.00,,,0.00,meteohub,2013-07-09 21:46:00,
2013-07-09 17:52:00,83.1,71.4,29.14,North,0,0.0,0.0,68,0.00,,,0.00,meteohub,2013-07-09 21:52:00,
2013-07-09 17:56:00,83.1,71.4,29.14,North,0,0.0,0.0,68,0.00,,,0.00,meteohub,2013-07-09 21:56:00,
2013-07-09 18:02:00,82.9,71.2,29.14,North,0,0.0,0.0,68,0.00,,,0.00,meteohub,2013-07-09 22:02:00,
2013-07-09 18:07:00,83.1,71.4,29.14,North,0,0.0,0.0,68,0.00,,,0.00,meteohub,2013-07-09 22:07:00,
2013-07-09 18:12:00,83.3,71.6,29.14,North,0,0.0,0.0,68,0.00,,,0.00,meteohub,2013-07-09 22:12:00,
2013-07-09 18:17:00,83.5,71.8,29.14,North,0,0.0,0.0,68,0.00,,,0.00,meteohub,2013-07-09 22:17:00,
2013-07-09 18:22:00,83.3,71.6,29.14,North,0,0.0,0.0,68,0.00,,,0.00,meteohub,2013-07-09 22:22:00,
2013-07-09 18:27:00,83.1,71.4,29.14,North,0,0.0,0.0,68,0.00,,,0.00,meteohub,2013-07-09 22:27:00,
2013-07-09 18:32:00,83.1,71.4,29.14,North,0,0.0,0.0,68,0.00,,,0.00,meteohub,2013-07-09 22:32:00,
2013-07-09 18:37:00,83.5,71.8,29.14,North,0,0.0,0.0,68,0.00,,,0.00,meteohub,2013-07-09 22:37:00,
2013-07-09 18:42:00,83.3,71.6,29.14,North,0,0.0,0.0,68,0.00,,,0.00,meteohub,2013-07-09 22:42:00,
2013-07-09 18:47:00,82.9,71.2,29.14,North,0,0.0,0.0,68,0.00,,,0.00,meteohub,2013-07-09 22:47:00,
2013-07-09 18:52:00,82.6,70.9,29.14,North,0,0.0,0.0,68,0.00,,,0.00,meteohub,2013-07-09 22:52:00,
2013-07-09 18:57:00,82.2,70.5,29.14,North,0,0.0,0.0,68,0.00,,,0.00,meteohub,2013-07-09 22:57:00,
2013-07-09 19:02:00,81.9,70.3,29.14,North,0,0.0,0.0,68,0.00,,,0.00,meteohub,2013-07-09 23:02:00,
2013-07-09 19:07:00,82.0,70.9,29.14,North,0,0.0,0.0,69,0.00,,,0.00,meteohub,2013-07-09 23:07:00,
2013-07-09 19:12:00,81.9,70.7,29.14,North,0,0.0,0.0,69,0.00,,,0.00,meteohub,2013-07-09 23:12:00,
2013-07-09 19:17:00,81.0,69.8,29.14,North,0,0.0,0.0,69,0.00,,,0.00,meteohub,2013-07-09 23:17:00,
2013-07-09 19:22:00,79.9,68.7,29.14,North,0,0.0,0.0,69,0.00,,,0.00,meteohub,2013-07-09 23:22:00,
2013-07-09 19:27:00,79.3,68.4,29.14,North,0,0.0,0.0,69,0.00,,,0.00,meteohub,2013-07-09 23:27:00,
2013-07-09 19:32:00,79.0,68.0,29.14,North,0,0.0,0.0,69,0.00,,,0.00,meteohub,2013-07-09 23:32:00,
2013-07-09 19:37:00,79.0,68.0,29.14,North,0,0.0,0.0,69,0.00,,,0.00,meteohub,2013-07-09 23:37:00,
2013-07-09 19:42:00,78.8,67.8,29.14,North,0,0.0,0.0,69,0.00,,,0.00,meteohub,2013-07-09 23:42:00,
2013-07-09 19:47:00,78.6,67.6,29.14,North,0,0.0,0.0,69,0.00,,,0.00,meteohub,2013-07-09 23:47:00,
2013-07-09 19:52:00,78.6,67.6,29.14,North,0,0.0,0.0,69,0.00,,,0.00,meteohub,2013-07-09 23:52:00,
2013-07-09 19:57:00,78.6,67.6,29.14,North,0,0.0,0.0,69,0.00,,,0.00,meteohub,2013-07-09 23:57:00,
2013-07-09 20:02:00,78.6,67.6,29.14,North,0,0.0,0.0,69,0.00,,,0.00,meteohub,2013-07-10 00:02:00,
2013-07-09 20:07:00,78.4,67.5,29.14,North,0,0.0,0.0,69,0.00,,,0.00,meteohub,2013-07-10 00:07:00,
2013-07-09 20:12:00,78.1,67.1,29.14,North,0,0.0,0.0,69,0.00,,,0.00,meteohub,2013-07-10 00:12:00,
2013-07-09 20:17:00,77.7,66.7,29.14,North,0,0.0,0.0,69,0.00,,,0.00,meteohub,2013-07-10 00:17:00,
2013-07-09 20:22:00,77.2,66.2,29.14,North,0,0.0,0.0,69,0.00,,,0.00,meteohub,2013-07-10 00:22:00,
2013-07-09 20:27:00,76.5,65.5,29.14,North,0,0.0,0.0,69,0.00,,,0.00,meteohub,2013-07-10 00:27:00,
2013-07-09 20:32:00,75.9,64.9,29.14,North,0,0.0,0.0,69,0.00,,,0.00,meteohub,2013-07-10 00:32:00,
2013-07-09 20:37:00,75.2,64.4,29.14,North,0,0.0,0.0,69,0.00,,,0.00,meteohub,2013-07-10 00:37:00,
2013-07-09 20:42:00,74.3,63.5,29.14,North,0,0.0,0.0,69,0.00,,,0.00,meteohub,2013-07-10 00:42:00,
2013-07-09 20:47:00,73.8,62.6,29.14,North,0,0.0,0.0,68,0.00,,,0.00,meteohub,2013-07-10 00:47:00,
2013-07-09 20:52:00,73.0,60.6,29.14,North,0,0.0,0.0,65,0.00,,,0.00,meteohub,2013-07-10 00:52:00,
2013-07-09 20:57:00,72.5,59.5,29.14,North,0,0.0,0.0,64,0.00,,,0.00,meteohub,2013-07-10 00:57:00,
2013-07-09 21:02:00,72.1,57.9,29.14,North,0,0.0,0.0,61,0.00,,,0.00,meteohub,2013-07-10 01:02:00,
2013-07-09 21:07:00,71.8,57.6,29.14,North,0,0.0,0.0,61,0.00,,,0.00,meteohub,2013-07-10 01:07:00,
2013-07-09 21:12:00,71.8,57.2,29.14,North,0,0.0,0.0,60,0.00,,,0.00,meteohub,2013-07-10 01:12:00,
2013-07-09 21:17:00,71.4,56.8,29.14,North,0,0.0,0.0,60,0.00,,,0.00,meteohub,2013-07-10 01:17:00,
2013-07-09 21:22:00,71.2,56.1,29.14,North,0,0.0,0.0,59,0.00,,,0.00,meteohub,2013-07-10 01:22:00,
2013-07-09 21:27:00,71.1,55.6,29.14,North,0,0.0,0.0,58,0.00,,,0.00,meteohub,2013-07-10 01:27:00,
2013-07-09 21:32:00,70.9,53.4,29.14,North,0,0.0,0.0,54,0.00,,,0.00,meteohub,2013-07-10 01:32:00,
2013-07-09 21:37:00,70.7,52.7,29.14,North,0,0.0,0.0,53,0.00,,,0.00,meteohub,2013-07-10 01:37:00,
2013-07-09 21:42:00,70.7,52.7,29.14,North,0,0.0,0.0,53,0.00,,,0.00,meteohub,2013-07-10 01:42:00,
2013-07-09 21:47:00,70.7,52.2,29.14,North,0,0.0,0.0,52,0.00,,,0.00,meteohub,2013-07-10 01:47:00,
2013-07-09 21:52:00,70.7,52.2,29.14,North,0,0.0,0.0,52,0.00,,,0.00,meteohub,2013-07-10 01:52:00,
2013-07-09 21:57:00,70.5,52.0,29.14,North,0,0.0,0.0,52,0.00,,,0.00,meteohub,2013-07-10 01:57:00,
2013-07-09 22:02:00,70.5,52.0,29.14,North,0,0.0,0.0,52,0.00,,,0.00,meteohub,2013-07-10 02:02:00,
2013-07-09 22:07:00,70.3,51.8,29.14,North,0,0.0,0.0,52,0.00,,,0.00,meteohub,2013-07-10 02:07:00,
2013-07-09 22:12:00,70.3,51.8,29.14,North,0,0.0,0.0,52,0.00,,,0.00,meteohub,2013-07-10 02:12:00,
2013-07-09 22:17:00,70.2,51.8,29.14,North,0,0.0,0.0,52,0.00,,,0.00,meteohub,2013-07-10 02:17:00,
2013-07-09 22:22:00,70.2,51.8,29.14,North,0,0.0,0.0,52,0.00,,,0.00,meteohub,2013-07-10 02:22:00,
2013-07-09 22:27:00,70.0,51.6,29.14,North,0,0.0,0.0,52,0.00,,,0.00,meteohub,2013-07-10 02:27:00,
2013-07-09 22:32:00,70.0,51.6,29.14,North,0,0.0,0.0,52,0.00,,,0.00,meteohub,2013-07-10 02:32:00,
2013-07-09 22:37:00,69.8,51.4,29.14,North,0,0.0,0.0,52,0.00,,,0.00,meteohub,2013-07-10 02:37:00,
2013-07-09 22:42:00,69.8,51.4,29.14,North,0,0.0,0.0,52,0.00,,,0.00,meteohub,2013-07-10 02:42:00,
2013-07-09 22:47:00,69.6,51.3,29.14,North,0,0.0,0.0,52,0.00,,,0.00,meteohub,2013-07-10 02:47:00,
2013-07-09 22:52:00,69.6,51.3,29.14,North,0,0.0,0.0,52,0.00,,,0.00,meteohub,2013-07-10 02:52:00,
2013-07-09 22:57:00,69.4,51.1,29.14,North,0,0.0,0.0,52,0.00,,,0.00,meteohub,2013-07-10 02:57:00,
2013-07-09 23:02:00,69.4,51.1,29.14,North,0,0.0,0.0,52,0.00,,,0.00,meteohub,2013-07-10 03:02:00,
2013-07-09 23:07:00,69.3,50.9,29.14,North,0,0.0,0.0,52,0.00,,,0.00,meteohub,2013-07-10 03:07:00,
2013-07-09 23:12:00,69.3,50.9,29.14,North,0,0.0,0.0,52,0.00,,,0.00,meteohub,2013-07-10 03:12:00,
2013-07-09 23:17:00,69.3,50.9,29.14,North,0,0.0,0.0,52,0.00,,,0.00,meteohub,2013-07-10 03:17:00,
2013-07-09 23:22:00,69.3,50.4,29.14,North,0,0.0,0.0,51,0.00,,,0.00,meteohub,2013-07-10 03:22:00,
2013-07-09 23:27:00,69.3,50.4,29.14,North,0,0.0,0.0,51,0.00,,,0.00,meteohub,2013-07-10 03:27:00,
2013-07-09 23:32:00,69.3,50.4,29.14,North,0,0.0,0.0,51,0.00,,,0.00,meteohub,2013-07-10 03:32:00,
2013-07-09 23:37:00,69.4,50.5,29.14,North,0,0.0,0.0,51,0.00,,,0.00,meteohub,2013-07-10 03:37:00,
2013-07-09 23:42:00,69.6,50.2,29.14,North,0,0.0,0.0,50,0.00,,,0.00,meteohub,2013-07-10 03:42:00,
2013-07-09 23:47:00,70.0,50.5,29.14,North,0,0.0,0.0,50,0.00,,,0.00,meteohub,2013-07-10 03:47:00,
2013-07-09 23:52:00,70.0,50.5,29.14,North,0,0.0,0.0,50,0.00,,,0.00,meteohub,2013-07-10 03:52:00,
2013-07-09 23:57:00,70.2,50.7,29.14,North,0,0.0,0.0,50,0.00,,,0.00,meteohub,2013-07-10 03:57:00,